Content
SEND FEEDBACK

Daily
Averages
Monthly
Summary
United States of America

MAURICEVILLE, TEXAS


Home > North America > United States > Texas
Elevation: 20 feet     Latitude: 30 14N     Longitude: 093 44W

WEATHER
 
SELECT A DAY
Number of Records: 108,109;   Date Range: 8/25/05 - 7/27/14
 
SHARE

PRINT THIS DATA

[ ← Previous Day ]
WEATHER ALMANAC - SEPTEMBER 28, 2013
[ Next Day → ]
[ °C ]   °F
Weather ElementAverageHighLow
Temperature80.6 °F87.4 °F (1:15 pm)74.7 °F (7:15 am)
Dewpoint71.2 °F73.8 °F (10:55 pm)67.6 °F (2:55 pm)
Humidity73.7 %87 % (7:15 am)54 % (2:55 pm)
Barometer29.99 in30.04 in (11:15 am)29.95 in (3:35 am)
Wind Speed5.6 mph11.5 mph (3:55 pm)
Wind Gust17.3 mph (12:35 pm)
Weather ElementAverage
Visibility10 mi
Wind DirectionESE (111.5 °)

Weather ElementTotal
Precipitation---
Cooling Degree Days16.1 (Base 65)
Growing Degree Days31.1 (Base 50)
Averaged from 71 records on September 28, 2013
WEATHER CONDITIONS BREAKOUT
WIND DIRECTION BREAKOUT
WEATHER BY HOUR - SEPTEMBER 28, 2013
[ °C ]   °F
Local TimeTemperatureDewpointHumidityBarometerVisibilityWind DirectionWind SpeedGust SpeedPrecipitationEventsConditions
12:35 AM76.3 °F70.7 °F83 %29.97 in10.0 miESE (110°)5.8 mphClear
12:55 AM76.6 °F70.5 °F81 %29.96 in10.0 miESE (110°)5.8 mphClear
1:15 AM77.0 °F70.2 °F79 %29.96 in10.0 miESE (120°)4.6 mphClear
1:35 AM76.8 °F70.3 °F80 %29.96 in10.0 miSE (130°)4.6 mphClear
1:55 AM76.1 °F70.5 °F83 %29.96 in10.0 miSE (130°)4.6 mphClear
2:15 AM76.3 °F70.7 °F83 %29.96 in10.0 miSE (130°)4.6 mphClear
2:35 AM76.5 °F70.7 °F82 %29.96 in10.0 miSE (130°)4.6 mphClear
2:55 AM76.3 °F70.7 °F83 %29.96 in10.0 miSE (130°)4.6 mphClear
3:15 AM76.5 °F70.5 °F82 %29.96 in10.0 miESE (120°)4.6 mphClear
3:35 AM76.3 °F70.3 °F82 %29.95 in10.0 miESE (120°)3.5 mphClear
3:55 AM76.3 °F70.5 °F82 %29.95 in10.0 miESE (120°)3.5 mphClear
4:15 AM76.1 °F70.7 °F83 %29.95 in10.0 miCalmClear
4:35 AM75.7 °F70.7 °F84 %29.95 in10.0 miEast (100°)3.5 mphClear
4:55 AM75.2 °F70.3 °F85 %29.95 in10.0 miCalmClear
5:15 AM75.6 °F70.3 °F84 %29.96 in10.0 miCalmClear
5:35 AM75.4 °F70.3 °F84 %29.96 in10.0 miSE (130°)3.5 mphClear
5:55 AM75.4 °F70.3 °F84 %29.97 in10.0 miSE (130°)3.5 mphClear
6:15 AM75.6 °F70.3 °F84 %29.98 in10.0 miEast (100°)3.5 mphScattered Clouds
6:35 AM75.4 °F70.7 °F85 %29.98 in10.0 miCalmMostly Cloudy
6:55 AM75.2 °F70.7 °F86 %29.98 in10.0 miCalmScattered Clouds
7:15 AM74.7 °F70.7 °F87 %29.99 in10.0 miEast (80°)3.5 mphScattered Clouds
7:35 AM75.0 °F70.7 °F86 %30.00 in10.0 miCalmScattered Clouds
7:55 AM76.3 °F71.2 °F84 %30.00 in10.0 miCalmScattered Clouds
8:15 AM78.1 °F71.8 °F81 %30.01 in10.0 miESE (110°)4.6 mphScattered Clouds
8:35 AM79.3 °F72.1 °F79 %30.00 in10.0 miESE (110°)5.8 mphScattered Clouds
8:55 AM80.8 °F72.3 °F75 %30.01 in10.0 miESE (120°)5.8 mphClear
9:15 AM81.9 °F73.4 °F75 %30.02 in10.0 miSE (130°)5.8 mphClear
9:35 AM83.3 °F72.9 °F71 %30.02 in10.0 miSE (140°)9.2 mphScattered Clouds
9:55 AM82.4 °F72.5 °F72 %30.03 in10.0 miSE (130°)8.1 mphScattered Clouds
10:15 AM84.7 °F72.5 °F67 %30.03 in10.0 miSSE (150°)6.9 mphScattered Clouds
10:35 AM85.3 °F71.2 °F63 %30.03 in10.0 miSE (140°)9.2 mphMostly Cloudy
10:55 AM84.6 °F70.7 °F63 %30.03 in10.0 miSE (140°)9.2 mphScattered Clouds
11:15 AM85.1 °F71.6 °F64 %30.04 in10.0 miSE (140°)8.1 mphScattered Clouds
11:35 AM84.7 °F71.6 °F65 %30.04 in10.0 miSE (140°)8.1 mphMostly Cloudy
11:55 AM85.3 °F71.8 °F64 %30.04 in10.0 miSSE (160°)10.4 mphMostly Cloudy
12:15 PM86.4 °F72.1 °F62 %30.03 in10.0 miSE (140°)9.2 mphMostly Cloudy
12:35 PM85.6 °F71.4 °F62 %30.03 in10.0 miSSE (150°)9.2 mph17.3 mphMostly Cloudy
12:55 PM86.2 °F71.2 °F61 %30.02 in10.0 miESE (120°)8.1 mphMostly Cloudy
1:15 PM87.4 °F71.6 °F59 %30.01 in10.0 miESE (120°)9.2 mphMostly Cloudy
1:35 PM86.9 °F70.9 °F59 %30.00 in10.0 miSE (130°)10.4 mphMostly Cloudy
1:55 PM87.1 °F71.1 °F59 %30.00 in10.0 miSSE (150°)9.2 mph16.1 mphMostly Cloudy
2:15 PM86.9 °F69.6 °F56 %30.00 in10.0 miSSE (160°)9.2 mphMostly Cloudy
2:35 PM86.4 °F68.4 °F55 %29.99 in10.0 miSE (140°)10.4 mphOvercast
2:55 PM86.2 °F67.6 °F54 %29.98 in10.0 miSE (130°)8.1 mphOvercast
3:15 PM85.6 °F69.4 °F58 %29.98 in10.0 miSSE (150°)9.2 mphOvercast
3:35 PM86.0 °F69.3 °F57 %29.98 in10.0 miSE (130°)9.2 mphOvercast
3:55 PM87.1 °F69.1 °F55 %29.98 in10.0 miESE (120°)11.5 mphOvercast
4:15 PM85.1 °F69.1 °F59 %29.97 in10.0 miSE (130°)9.2 mphOvercast
4:35 PM85.1 °F69.4 °F59 %29.97 in10.0 miESE (120°)9.2 mphOvercast
4:55 PM85.1 °F69.3 °F59 %29.97 in10.0 miSE (140°)9.2 mphOvercast
5:15 PM86.0 °F69.3 °F57 %29.96 in10.0 miSSE (150°)10.4 mphOvercast
5:35 PM85.1 °F69.8 °F60 %29.96 in10.0 miSSE (150°)10.4 mphMostly Cloudy
5:55 PM84.2 °F70.5 °F63 %29.96 in10.0 miSE (130°)9.2 mphScattered Clouds
6:15 PM82.4 °F71.1 °F68 %29.96 in10.0 miSE (130°)8.1 mphClear
6:35 PM82.0 °F71.4 °F70 %29.97 in10.0 miSE (130°)5.8 mphMostly Cloudy
6:55 PM81.5 °F71.2 °F71 %29.98 in10.0 miSE (130°)6.9 mphOvercast
7:15 PM81.1 °F71.6 °F73 %29.98 in10.0 miSSE (150°)3.5 mphOvercast
7:35 PM80.6 °F72.0 °F75 %29.99 in10.0 miSE (130°)4.6 mphMostly Cloudy
7:55 PM80.1 °F72.3 °F77 %29.99 in10.0 miSE (140°)4.6 mphMostly Cloudy
8:15 PM79.5 °F72.7 °F79 %30.00 in10.0 miSE (140°)3.5 mphScattered Clouds
8:35 PM79.2 °F72.9 °F81 %30.01 in10.0 miSE (140°)3.5 mphClear
8:55 PM78.4 °F72.9 °F83 %30.02 in10.0 miCalmScattered Clouds
9:15 PM78.4 °F73.0 °F83 %30.02 in10.0 miCalmClear
9:35 PM77.9 °F73.4 °F86 %30.03 in10.0 miCalmMostly Cloudy
9:55 PM78.4 °F73.0 °F83 %30.03 in10.0 miSE (140°)3.5 mphMostly Cloudy
10:15 PM78.8 °F72.9 °F82 %30.02 in10.0 miESE (120°)4.6 mphScattered Clouds
10:35 PM79.0 °F73.2 °F82 %30.03 in10.0 miESE (120°)3.5 mphOvercast
10:55 PM79.2 °F73.8 °F83 %30.03 in10.0 miESE (110°)3.5 mphOvercast
11:15 PM79.7 °F73.8 °F82 %30.02 in10.0 miSE (130°)4.6 mphOvercast
11:35 PM79.5 °F73.8 °F82 %30.02 in10.0 miSE (130°)3.5 mphOvercast
11:55 PM79.0 °F73.4 °F83 %30.01 in10.0 miESE (120°)4.6 mphMostly Cloudy
Hourly data recorded from KORG, located miles away from Mauriceville, Texas







STORIES FROM OUR PARTNERS